Weather Roundup
Issued by NWS Springfield, MO

Home | Current Version | Previous Version | Text Only | Print | Product List | Glossary On
Versions: 1 2 3 4 5 6 7 8 9 10 11 12 13 14 15 16 17 18 19 20 21 22 23 24 25 26 27 28 29 30 31 32 33 34 35 36 37 38 39 40 41 42 43 44 45 46 47 48 49 50
000
NZUS99 KSGF 192357
HRRSGF

HOURLY WEATHER
NATIONAL WEATHER SERVICE SPRINGFIELD MO
700 PM CDT THU OCT 19 2017

......SGF CWA......

CITY           SKY/WX    TMP DP  RH WIND       PRES   REMARKS
SPRINGFIELD    PTCLDY    65  49  56 S6        30.12F
6HR MIN TEMP:  65; 6HR MAX TEMP:  80;

JOPLIN         PTCLDY    69  52  54 SE3       30.11S
6HR MIN TEMP:  69; 6HR MAX TEMP:  79;

WEST PLAINS    CLEAR     67  46  47 CALM      30.18R
6HR MIN TEMP:  67; 6HR MAX TEMP:  80;

ROLLA          CLEAR     66  49  54 SE7       30.14S
6HR MIN TEMP:  65; 6HR MAX TEMP:  79;

BRANSON        CLOUDY    70  46  43 SE9       30.16S

......SURROUNDING SGF CWA......

CITY           SKY/WX    TMP DP  RH WIND       PRES   REMARKS
CHANUTE        PTCLDY    65  53  65 S8        30.08S
PARSONS        PTCLDY    68  53  58 S3        30.10S
COFFEYVILLE    PTCLDY    68  55  63 S5        30.08F
EMPORIA        CLOUDY    69  52  54 SE12      30.04S
HARRISON AR    PTCLDY    67  47  48 SE6       30.16S

......KANSAS AND MISSOURI......

CITY           SKY/WX    TMP DP  RH WIND       PRES   REMARKS
KANSAS CTY INT PTCLDY    63  52  67 S9        30.05S
SEDALIA        CLEAR     69  54  58 S6        30.11S
ST JOSEPH      CLEAR     67  53  61 S7        30.03S
ST LOUIS       PTCLDY    69  51  52 E5        30.14S
WICHITA        MOCLDY    70  49  47 S13       30.03S
TOPEKA         CLOUDY    70  53  54 SE6       30.03S
OLATHE         CLOUDY    66  54  65 S8        30.07S

......TENNESSEE......

CITY           SKY/WX    TMP DP  RH WIND       PRES   REMARKS
MEMPHIS        NOT AVBL
NASHVILLE      CLEAR     67  45  45 S3        30.24R

......ARKANSAS.......

CITY           SKY/WX    TMP DP  RH WIND       PRES   REMARKS
FAYETTEVILLE   CLEAR     61  52  72 CALM      30.15R
FT SMITH       MOCLDY    73  55  53 CALM      30.11S
LITTLE ROCK    PTCLDY    69  56  62 S6        30.16R

......OKLAHOMA.......

CITY           SKY/WX    TMP DP  RH WIND       PRES   REMARKS
TULSA          MOCLDY    69  56  62 SE6       30.08S
PONCA CITY     PTCLDY    71  50  47 SE13      30.05S
MCALESTER      PTCLDY    66  60  81 CALM      30.10S
OKLAHOMA CITY  MOCLDY    66  49  54 SE9       30.06S

......IOWA............

CITY           SKY/WX    TMP DP  RH WIND       PRES   REMARKS
DES MOINES     NOT AVBL

......ILLINOIS........

CITY           SKY/WX    TMP DP  RH WIND       PRES   REMARKS
QUINCY         NOT AVBL
CHICAGO        CLOUDY    57  28  33 SE8       30.16S



USA.gov is the U.S. government's official web portal to all federal, state and local government web resources and services.